Time,TemperatureF,DewpointF,PressureIn,WindDirection,WindDirectionDegrees,WindSpeedMPH,WindSpeedGustMPH,Humidity,HourlyPrecipIn,Conditions,Clouds,dailyrainin,SoftwareType,DateUTC
2013-03-18 00:00:00,51.3,41.1,29.77,SE,135,0.0,0.0,68,0.00,CLR,,0.00,WeatherDisplay:10.37,2013-03-18 04:00:00,
2013-03-18 00:01:00,51.3,41.4,29.77,SE,135,0.4,2.3,69,0.00,CLR,,0.00,WeatherDisplay:10.37,2013-03-18 04:01:00,
2013-03-18 00:07:00,51.1,41.3,29.77,SE,135,0.0,0.0,69,0.00,CLR,,0.00,WeatherDisplay:10.37,2013-03-18 04:07:00,
2013-03-18 00:12:00,50.9,41.1,29.77,SE,135,0.0,0.0,69,0.00,CLR,,0.00,WeatherDisplay:10.37,2013-03-18 04:12:00,
2013-03-18 00:17:00,50.7,40.9,29.77,SE,135,0.4,2.3,69,0.00,CLR,,0.00,WeatherDisplay:10.37,2013-03-18 04:17:00,
2013-03-18 00:22:00,50.5,40.7,29.77,SE,135,0.0,0.0,69,0.00,CLR,,0.00,WeatherDisplay:10.37,2013-03-18 04:22:00,
2013-03-18 00:27:00,50.4,40.6,29.77,SE,135,0.0,0.0,69,0.00,CLR,,0.00,WeatherDisplay:10.37,2013-03-18 04:27:00,
2013-03-18 00:32:00,50.4,40.6,29.77,SE,135,0.0,0.0,69,0.00,CLR,,0.00,WeatherDisplay:10.37,2013-03-18 04:32:00,
2013-03-18 00:37:00,50.2,40.8,29.77,SE,135,0.0,0.0,70,0.00,CLR,,0.00,WeatherDisplay:10.37,2013-03-18 04:37:00,
2013-03-18 00:42:00,50.2,40.4,29.77,SE,135,0.4,1.3,69,0.00,CLR,,0.00,WeatherDisplay:10.37,2013-03-18 04:42:00,
2013-03-18 00:47:00,49.8,40.4,29.77,SE,135,0.0,0.0,70,0.00,CLR,,0.00,WeatherDisplay:10.37,2013-03-18 04:47:00,
2013-03-18 00:52:00,49.8,40.4,29.77,ESE,112,0.7,1.1,70,0.00,CLR,,0.00,WeatherDisplay:10.37,2013-03-18 04:52:00,
2013-03-18 00:57:00,49.6,40.3,29.77,ESE,112,0.0,0.0,70,0.00,CLR,,0.00,WeatherDisplay:10.37,2013-03-18 04:57:00,
2013-03-18 01:02:00,49.6,40.6,29.77,SSE,158,0.0,0.0,71,0.00,CLR,,0.00,WeatherDisplay:10.37,2013-03-18 05:02:00,
2013-03-18 01:07:00,49.3,40.3,29.77,SSE,158,0.0,2.3,71,0.00,CLR,,0.00,WeatherDisplay:10.37,2013-03-18 05:07:00,
2013-03-18 01:13:00,49.1,40.1,29.78,ESE,112,0.0,0.0,71,0.00,CLR,,0.00,WeatherDisplay:10.37,2013-03-18 05:13:00,
2013-03-18 01:18:00,48.9,39.9,29.77,SE,135,0.4,2.2,71,0.00,CLR,,0.00,WeatherDisplay:10.37,2013-03-18 05:18:00,
2013-03-18 01:23:00,48.7,39.8,29.77,SE,135,0.0,0.0,71,0.00,CLR,,0.00,WeatherDisplay:10.37,2013-03-18 05:23:00,
2013-03-18 01:28:00,48.4,39.4,29.78,SSE,158,1.8,6.9,71,0.00,CLR,,0.00,WeatherDisplay:10.37,2013-03-18 05:28:00,
2013-03-18 01:33:00,48.2,39.2,29.77,SSE,158,1.5,4.9,71,0.00,CLR,,0.00,WeatherDisplay:10.37,2013-03-18 05:33:00,
2013-03-18 01:38:00,48.0,39.1,29.77,ESE,112,0.0,0.0,71,0.00,CLR,,0.00,WeatherDisplay:10.37,2013-03-18 05:38:00,
2013-03-18 01:43:00,47.8,38.9,29.77,ESE,112,0.0,0.0,71,0.00,CLR,,0.00,WeatherDisplay:10.37,2013-03-18 05:43:00,
2013-03-18 01:48:00,47.8,39.2,29.77,ESE,112,0.0,0.0,72,0.00,CLR,,0.00,WeatherDisplay:10.37,2013-03-18 05:48:00,
2013-03-18 01:53:00,47.7,39.1,29.77,ESE,112,0.0,0.0,72,0.00,CLR,,0.00,WeatherDisplay:10.37,2013-03-18 05:53:00,
2013-03-18 01:58:00,47.7,39.1,29.77,ESE,112,0.0,0.0,72,0.00,CLR,,0.00,WeatherDisplay:10.37,2013-03-18 05:58:00,
2013-03-18 02:03:00,47.5,38.9,29.77,ESE,112,0.0,0.0,72,0.00,CLR,,0.00,WeatherDisplay:10.37,2013-03-18 06:03:00,
2013-03-18 02:08:00,47.5,38.9,29.77,SSE,158,0.0,0.0,72,0.00,CLR,,0.00,WeatherDisplay:10.37,2013-03-18 06:08:00,
2013-03-18 02:13:00,47.3,38.7,29.77,SSE,158,0.0,0.0,72,0.00,CLR,,0.00,WeatherDisplay:10.37,2013-03-18 06:13:00,
2013-03-18 02:18:00,47.1,38.6,29.78,ESE,112,0.0,0.0,72,0.00,CLR,,0.00,WeatherDisplay:10.37,2013-03-18 06:18:00,
2013-03-18 02:23:00,47.1,38.6,29.77,ESE,112,0.0,0.0,72,0.00,CLR,,0.00,WeatherDisplay:10.37,2013-03-18 06:23:00,
2013-03-18 02:28:00,46.9,38.4,29.77,ESE,112,0.0,0.0,72,0.00,CLR,,0.00,WeatherDisplay:10.37,2013-03-18 06:28:00,
2013-03-18 02:33:00,46.8,38.2,29.78,SSE,158,0.0,0.0,72,0.00,CLR,,0.00,WeatherDisplay:10.37,2013-03-18 06:33:00,
2013-03-18 02:38:00,46.6,38.0,29.78,SSE,158,0.6,3.5,72,0.00,CLR,,0.00,WeatherDisplay:10.37,2013-03-18 06:38:00,
2013-03-18 02:43:00,46.6,38.4,29.77,ESE,112,0.0,0.0,73,0.00,CLR,,0.00,WeatherDisplay:10.37,2013-03-18 06:43:00,
2013-03-18 02:48:00,46.4,38.2,29.77,SSE,158,0.0,0.0,73,0.00,CLR,,0.00,WeatherDisplay:10.37,2013-03-18 06:48:00,
2013-03-18 02:53:00,46.2,38.0,29.77,SSE,158,1.3,2.3,73,0.00,CLR,,0.00,WeatherDisplay:10.37,2013-03-18 06:53:00,
2013-03-18 02:58:00,46.2,38.0,29.78,South,180,0.0,0.0,73,0.00,CLR,,0.00,WeatherDisplay:10.37,2013-03-18 06:58:00,
2013-03-18 03:03:00,46.0,38.2,29.78,ESE,112,0.0,0.0,74,0.00,CLR,,0.00,WeatherDisplay:10.37,2013-03-18 07:03:00,
2013-03-18 03:08:00,46.0,38.2,29.78,SSE,158,1.4,3.5,74,0.00,CLR,,0.00,WeatherDisplay:10.37,2013-03-18 07:08:00,
2013-03-18 03:13:00,45.9,38.0,29.78,SSE,158,0.0,0.0,74,0.00,CLR,,0.00,WeatherDisplay:10.37,2013-03-18 07:13:00,
2013-03-18 03:18:00,45.7,37.9,29.78,SSE,158,0.0,0.0,74,0.00,CLR,,0.00,WeatherDisplay:10.37,2013-03-18 07:18:00,
2013-03-18 03:23:00,45.7,37.9,29.78,SSW,202,0.1,3.5,74,0.00,CLR,,0.00,WeatherDisplay:10.37,2013-03-18 07:23:00,
2013-03-18 03:28:00,45.7,37.9,29.78,South,180,0.0,0.0,74,0.00,CLR,,0.00,WeatherDisplay:10.37,2013-03-18 07:28:00,
2013-03-18 03:33:00,45.3,37.5,29.78,SE,135,0.6,2.3,74,0.00,CLR,,0.00,WeatherDisplay:10.37,2013-03-18 07:33:00,
2013-03-18 03:38:00,45.3,37.5,29.78,SE,135,0.0,0.0,74,0.00,CLR,,0.00,WeatherDisplay:10.37,2013-03-18 07:38:00,
2013-03-18 03:43:00,45.3,37.5,29.78,SE,135,0.2,1.1,74,0.00,CLR,,0.00,WeatherDisplay:10.37,2013-03-18 07:43:00,
2013-03-18 03:48:00,45.3,37.5,29.78,SE,135,0.0,0.0,74,0.00,CLR,,0.00,WeatherDisplay:10.37,2013-03-18 07:48:00,
2013-03-18 03:53:00,45.1,37.3,29.77,SSE,158,0.0,3.5,74,0.00,CLR,,0.00,WeatherDisplay:10.37,2013-03-18 07:53:00,
2013-03-18 03:58:00,45.1,37.7,29.77,SSE,158,0.0,0.0,75,0.00,CLR,,0.00,WeatherDisplay:10.37,2013-03-18 07:58:00,
2013-03-18 04:03:00,45.1,37.7,29.78,SSE,158,0.0,0.0,75,0.00,CLR,,0.00,WeatherDisplay:10.37,2013-03-18 08:03:00,
2013-03-18 04:08:00,45.1,37.7,29.77,SSE,158,0.0,0.0,75,0.00,CLR,,0.00,WeatherDisplay:10.37,2013-03-18 08:08:00,
2013-03-18 04:13:00,45.1,37.7,29.77,SSE,158,0.0,0.0,75,0.00,CLR,,0.00,WeatherDisplay:10.37,2013-03-18 08:13:00,
2013-03-18 04:18:00,45.1,37.7,29.78,SSE,158,0.0,0.0,75,0.00,CLR,,0.00,WeatherDisplay:10.37,2013-03-18 08:18:00,
2013-03-18 04:23:00,45.1,37.7,29.78,SE,135,0.0,0.0,75,0.00,CLR,,0.00,WeatherDisplay:10.37,2013-03-18 08:23:00,
2013-03-18 04:28:00,44.8,37.3,29.78,SE,136,0.0,0.0,75,0.00,CLR,,0.00,WeatherDisplay:10.37,2013-03-18 08:28:00,
2013-03-18 04:33:00,44.6,37.2,29.77,SE,135,0.0,0.0,75,0.00,CLR,,0.00,WeatherDisplay:10.37,2013-03-18 08:33:00,
2013-03-18 04:38:00,44.4,37.0,29.78,South,180,0.8,3.5,75,0.00,CLR,,0.00,WeatherDisplay:10.37,2013-03-18 08:38:00,
2013-03-18 04:43:00,44.4,37.0,29.78,South,180,0.0,0.0,75,0.00,CLR,,0.00,WeatherDisplay:10.37,2013-03-18 08:43:00,
2013-03-18 04:48:00,44.4,37.3,29.78,SE,135,0.0,0.0,76,0.00,CLR,,0.00,WeatherDisplay:10.37,2013-03-18 08:48:00,
2013-03-18 04:53:00,44.4,37.3,29.78,SE,135,0.5,1.1,76,0.00,CLR,,0.00,WeatherDisplay:10.37,2013-03-18 08:53:00,
2013-03-18 04:58:00,44.2,37.2,29.78,SE,135,0.0,0.0,76,0.00,CLR,,0.00,WeatherDisplay:10.37,2013-03-18 08:58:00,
2013-03-18 05:03:00,44.1,37.3,29.79,SE,135,0.0,0.0,77,0.00,CLR,,0.00,WeatherDisplay:10.37,2013-03-18 09:03:00,
2013-03-18 05:08:00,43.9,37.1,29.79,SE,135,0.0,0.0,77,0.00,CLR,,0.00,WeatherDisplay:10.37,2013-03-18 09:08:00,
2013-03-18 05:13:00,43.9,37.1,29.78,SE,135,0.0,0.0,77,0.00,CLR,,0.00,WeatherDisplay:10.37,2013-03-18 09:13:00,
2013-03-18 05:18:00,43.7,37.0,29.78,SE,135,0.0,0.0,77,0.00,CLR,,0.00,WeatherDisplay:10.37,2013-03-18 09:18:00,
2013-03-18 05:23:00,43.5,36.8,29.78,SE,135,0.0,0.0,77,0.00,CLR,,0.00,WeatherDisplay:10.37,2013-03-18 09:23:00,
2013-03-18 05:28:00,43.5,36.8,29.78,SE,135,0.0,0.0,77,0.00,CLR,,0.00,WeatherDisplay:10.37,2013-03-18 09:28:00,
2013-03-18 05:33:00,43.3,36.9,29.78,SE,135,0.0,0.0,78,0.00,CLR,,0.00,WeatherDisplay:10.37,2013-03-18 09:33:00,
2013-03-18 05:38:00,43.3,36.9,29.77,SE,135,0.0,0.0,78,0.00,CLR,,0.00,WeatherDisplay:10.37,2013-03-18 09:38:00,
2013-03-18 05:43:00,43.3,36.9,29.77,SSE,158,0.0,0.0,78,0.00,CLR,,0.00,WeatherDisplay:10.37,2013-03-18 09:43:00,
2013-03-18 05:48:00,43.2,36.8,29.77,ENE,68,0.0,0.0,78,0.00,CLR,,0.00,WeatherDisplay:10.37,2013-03-18 09:48:00,
2013-03-18 05:53:00,43.0,36.6,29.77,SSE,158,0.0,0.0,78,0.00,CLR,,0.00,WeatherDisplay:10.37,2013-03-18 09:53:00,
2013-03-18 05:58:00,42.6,36.6,29.77,ESE,112,0.0,0.0,79,0.00,CLR,,0.00,WeatherDisplay:10.37,2013-03-18 09:58:00,
2013-03-18 06:03:00,42.6,36.6,29.77,SE,135,0.0,0.0,79,0.00,CLR,,0.00,WeatherDisplay:10.37,2013-03-18 10:03:00,
2013-03-18 06:08:00,42.6,36.9,29.77,SSE,158,0.0,0.0,80,0.00,CLR,,0.00,WeatherDisplay:10.37,2013-03-18 10:08:00,
2013-03-18 06:13:00,42.6,36.9,29.77,South,180,0.0,0.0,80,0.00,CLR,,0.00,WeatherDisplay:10.37,2013-03-18 10:13:00,
2013-03-18 06:18:00,42.4,36.7,29.78,South,180,0.0,0.0,80,0.00,CLR,,0.00,WeatherDisplay:10.37,2013-03-18 10:18:00,
2013-03-18 06:23:00,42.4,36.7,29.78,South,180,0.0,0.0,80,0.00,CLR,,0.00,WeatherDisplay:10.37,2013-03-18 10:23:00,
2013-03-18 06:28:00,42.4,36.7,29.77,South,180,0.0,0.0,80,0.00,CLR,,0.00,WeatherDisplay:10.37,2013-03-18 10:28:00,
2013-03-18 06:33:00,42.4,37.0,29.77,South,180,0.0,0.0,81,0.00,CLR,,0.00,WeatherDisplay:10.37,2013-03-18 10:33:00,
2013-03-18 06:38:00,42.4,37.0,29.77,South,180,0.0,0.0,81,0.00,CLR,,0.00,WeatherDisplay:10.37,2013-03-18 10:38:00,
2013-03-18 06:43:00,42.4,37.0,29.77,South,180,0.0,0.0,81,0.00,CLR,,0.00,WeatherDisplay:10.37,2013-03-18 10:43:00,
2013-03-18 06:48:00,42.4,37.0,29.78,South,180,0.0,0.0,81,0.00,CLR,,0.00,WeatherDisplay:10.37,2013-03-18 10:48:00,
2013-03-18 06:53:00,42.4,37.0,29.77,South,180,0.0,0.0,81,0.00,CLR,,0.00,WeatherDisplay:10.37,2013-03-18 10:53:00,
2013-03-18 06:58:00,42.1,36.7,29.78,South,180,0.0,0.0,81,0.00,CLR,,0.00,WeatherDisplay:10.37,2013-03-18 10:58:00,
2013-03-18 07:03:00,42.1,36.7,29.78,South,180,0.0,0.0,81,0.00,CLR,,0.00,WeatherDisplay:10.37,2013-03-18 11:03:00,
2013-03-18 07:08:00,41.9,36.5,29.78,South,180,0.0,0.0,81,0.00,CLR,,0.00,WeatherDisplay:10.37,2013-03-18 11:08:00,
2013-03-18 07:13:00,41.9,36.5,29.78,SSE,158,0.0,0.0,81,0.00,CLR,,0.00,WeatherDisplay:10.37,2013-03-18 11:13:00,
2013-03-18 07:18:00,41.7,36.3,29.78,South,180,0.0,0.0,81,0.00,CLR,,0.00,WeatherDisplay:10.37,2013-03-18 11:18:00,
2013-03-18 07:23:00,41.5,36.1,29.78,South,180,0.0,0.0,81,0.00,CLR,,0.00,WeatherDisplay:10.37,2013-03-18 11:23:00,
2013-03-18 07:28:00,41.5,36.5,29.79,SSE,158,0.0,0.0,82,0.00,CLR,,0.00,WeatherDisplay:10.37,2013-03-18 11:28:00,
2013-03-18 07:33:00,41.4,36.3,29.79,SSE,158,0.0,0.0,82,0.00,CLR,,0.00,WeatherDisplay:10.37,2013-03-18 11:33:00,
2013-03-18 07:38:00,41.4,36.3,29.79,South,180,0.0,0.0,82,0.00,CLR,,0.00,WeatherDisplay:10.37,2013-03-18 11:38:00,
2013-03-18 07:43:00,41.4,36.3,29.79,SSE,158,0.0,0.0,82,0.00,CLR,,0.00,WeatherDisplay:10.37,2013-03-18 11:43:00,
2013-03-18 07:48:00,41.2,36.1,29.79,South,180,0.0,0.0,82,0.00,CLR,,0.00,WeatherDisplay:10.37,2013-03-18 11:48:00,
2013-03-18 07:53:00,41.0,35.9,29.78,SE,135,0.0,0.0,82,0.00,CLR,,0.00,WeatherDisplay:10.37,2013-03-18 11:53:00,
2013-03-18 07:58:00,41.0,35.9,29.78,South,180,0.0,0.0,82,0.00,CLR,,0.00,WeatherDisplay:10.37,2013-03-18 11:58:00,
2013-03-18 08:03:00,40.8,35.7,29.79,South,180,0.0,0.0,82,0.00,CLR,,0.00,WeatherDisplay:10.37,2013-03-18 12:03:00,
2013-03-18 08:08:00,40.8,35.7,29.79,South,180,0.0,0.0,82,0.00,CLR,,0.00,WeatherDisplay:10.37,2013-03-18 12:08:00,
2013-03-18 08:13:00,40.8,35.7,29.78,South,180,0.0,0.0,82,0.00,CLR,,0.00,WeatherDisplay:10.37,2013-03-18 12:13:00,
2013-03-18 08:18:00,40.8,35.7,29.79,South,180,0.0,0.0,82,0.00,CLR,,0.00,WeatherDisplay:10.37,2013-03-18 12:18:00,
2013-03-18 08:23:00,40.8,36.1,29.80,South,180,0.0,0.0,83,0.00,CLR,,0.00,WeatherDisplay:10.37,2013-03-18 12:23:00,
2013-03-18 08:28:00,40.8,36.1,29.80,SE,135,0.0,0.0,83,0.00,CLR,,0.00,WeatherDisplay:10.37,2013-03-18 12:28:00,
2013-03-18 08:33:00,40.8,36.1,29.80,ESE,112,0.0,0.0,83,0.00,CLR,,0.00,WeatherDisplay:10.37,2013-03-18 12:33:00,
2013-03-18 08:38:00,40.6,35.9,29.79,SE,135,0.0,0.0,83,0.02,RA,,0.02,WeatherDisplay:10.37,2013-03-18 12:38:00,
2013-03-18 08:43:00,40.5,35.7,29.79,ESE,112,0.0,0.0,83,0.02,RA,,0.02,WeatherDisplay:10.37,2013-03-18 12:43:00,
2013-03-18 08:48:00,40.3,35.5,29.80,SE,135,0.0,0.0,83,0.02,CLR,,0.02,WeatherDisplay:10.37,2013-03-18 12:48:00,
2013-03-18 08:53:00,40.3,35.5,29.80,SE,135,0.0,0.0,83,0.02,CLR,,0.02,WeatherDisplay:10.37,2013-03-18 12:53:00,
2013-03-18 08:58:00,40.5,35.7,29.80,SSW,202,0.0,0.0,83,0.02,CLR,,0.02,WeatherDisplay:10.37,2013-03-18 12:58:00,
2013-03-18 09:03:00,40.3,35.5,29.80,South,180,0.0,0.0,83,0.02,CLR,,0.02,WeatherDisplay:10.37,2013-03-18 13:03:00,
2013-03-18 09:08:00,40.1,35.4,29.80,West,270,0.0,0.0,83,0.02,CLR,,0.02,WeatherDisplay:10.37,2013-03-18 13:08:00,
2013-03-18 09:13:00,39.9,35.2,29.80,SSE,158,0.0,0.0,83,0.02,CLR,,0.02,WeatherDisplay:10.37,2013-03-18 13:13:00,
2013-03-18 09:18:00,39.9,35.2,29.80,SSE,158,0.0,0.0,83,0.02,CLR,,0.02,WeatherDisplay:10.37,2013-03-18 13:18:00,
2013-03-18 09:23:00,39.9,35.2,29.79,SSE,158,0.0,0.0,83,0.02,CLR,,0.02,WeatherDisplay:10.37,2013-03-18 13:23:00,
2013-03-18 09:28:00,40.1,35.4,29.78,SSE,158,0.0,0.0,83,0.02,CLR,,0.02,WeatherDisplay:10.37,2013-03-18 13:28:00,
2013-03-18 09:34:00,40.1,35.4,29.78,SSE,158,0.0,0.0,83,0.02,CLR,,0.02,WeatherDisplay:10.37,2013-03-18 13:34:00,
2013-03-18 09:39:00,40.1,35.4,29.78,SSE,158,0.0,0.0,83,0.00,CLR,,0.02,WeatherDisplay:10.37,2013-03-18 13:39:00,
2013-03-18 09:44:00,40.3,35.5,29.78,SSE,158,0.0,0.0,83,0.00,CLR,,0.02,WeatherDisplay:10.37,2013-03-18 13:44:00,
2013-03-18 09:49:00,40.1,35.4,29.79,SW,225,0.0,0.0,83,0.00,CLR,,0.02,WeatherDisplay:10.37,2013-03-18 13:49:00,
2013-03-18 09:54:00,40.1,35.4,29.79,SSW,202,0.0,0.0,83,0.00,CLR,,0.02,WeatherDisplay:10.37,2013-03-18 13:54:00,
2013-03-18 09:59:00,39.9,35.2,29.78,SE,135,0.0,0.0,83,0.00,CLR,,0.02,WeatherDisplay:10.37,2013-03-18 13:59:00,
2013-03-18 10:04:00,39.9,35.2,29.79,South,180,0.0,0.0,83,0.00,CLR,,0.02,WeatherDisplay:10.37,2013-03-18 14:04:00,
2013-03-18 10:09:00,40.1,35.4,29.80,South,180,0.0,0.0,83,0.00,CLR,,0.02,WeatherDisplay:10.37,2013-03-18 14:09:00,
2013-03-18 10:14:00,40.1,35.4,29.80,South,180,0.0,0.0,83,0.02,RA,,0.04,WeatherDisplay:10.37,2013-03-18 14:14:00,
2013-03-18 10:19:00,40.1,35.4,29.79,SSE,158,0.0,0.0,83,0.02,RA,,0.04,WeatherDisplay:10.37,2013-03-18 14:19:00,
2013-03-18 10:24:00,40.1,35.4,29.79,SSE,158,0.0,0.0,83,0.02,CLR,,0.04,WeatherDisplay:10.37,2013-03-18 14:24:00,
2013-03-18 10:29:00,40.5,35.7,29.79,SSE,158,0.0,0.0,83,0.02,,,0.04,WeatherDisplay:10.37,2013-03-18 14:29:00,
2013-03-18 10:34:00,40.5,35.7,29.80,SSE,158,0.0,0.0,83,0.02,,,0.04,WeatherDisplay:10.37,2013-03-18 14:34:00,
2013-03-18 10:39:00,40.5,35.7,29.80,SSE,158,0.0,0.0,83,0.02,,,0.04,WeatherDisplay:10.37,2013-03-18 14:39:00,
2013-03-18 10:44:00,40.6,35.9,29.80,SSE,158,0.0,0.0,83,0.02,,,0.04,WeatherDisplay:10.37,2013-03-18 14:44:00,
2013-03-18 10:49:00,40.6,35.9,29.80,SSE,158,0.0,0.0,83,0.02,,,0.04,WeatherDisplay:10.37,2013-03-18 14:49:00,
2013-03-18 10:54:00,40.6,35.9,29.79,South,180,0.0,0.0,83,0.02,,,0.04,WeatherDisplay:10.37,2013-03-18 14:54:00,
2013-03-18 10:59:00,40.5,35.7,29.79,South,180,0.0,0.0,83,0.02,,,0.04,WeatherDisplay:10.37,2013-03-18 14:59:00,
2013-03-18 11:04:00,40.6,35.9,29.79,SE,135,0.0,0.0,83,0.02,,,0.04,WeatherDisplay:10.37,2013-03-18 15:04:00,
2013-03-18 11:09:00,40.6,35.9,29.79,NE,45,0.0,0.0,83,0.02,,,0.04,WeatherDisplay:10.37,2013-03-18 15:09:00,
2013-03-18 11:14:00,40.6,35.9,29.78,SSW,202,0.1,2.3,83,0.00,,,0.04,WeatherDisplay:10.37,2013-03-18 15:14:00,
2013-03-18 11:19:00,40.8,36.1,29.78,SSE,158,0.8,0.0,83,0.00,,,0.04,WeatherDisplay:10.37,2013-03-18 15:19:00,
2013-03-18 11:24:00,40.8,36.1,29.78,South,180,0.0,0.0,83,0.00,,,0.04,WeatherDisplay:10.37,2013-03-18 15:24:00,
2013-03-18 11:29:00,40.8,36.1,29.78,SSE,158,0.0,0.0,83,0.00,,,0.04,WeatherDisplay:10.37,2013-03-18 15:29:00,
2013-03-18 11:34:00,40.6,35.9,29.78,South,180,0.0,0.0,83,0.00,,,0.04,WeatherDisplay:10.37,2013-03-18 15:34:00,
2013-03-18 11:39:00,40.6,35.9,29.78,SSE,158,0.0,0.0,83,0.00,,,0.04,WeatherDisplay:10.37,2013-03-18 15:39:00,
2013-03-18 11:44:00,40.6,35.9,29.77,ENE,68,0.0,0.0,83,0.00,,,0.04,WeatherDisplay:10.37,2013-03-18 15:44:00,
2013-03-18 11:49:00,40.6,35.9,29.77,SSE,158,0.0,0.0,83,0.00,,,0.04,WeatherDisplay:10.37,2013-03-18 15:49:00,
2013-03-18 11:54:00,40.6,35.9,29.77,South,180,0.5,3.5,83,0.00,,,0.04,WeatherDisplay:10.37,2013-03-18 15:54:00,
2013-03-18 11:59:00,40.6,35.9,29.77,SE,135,0.0,0.0,83,0.00,,,0.04,WeatherDisplay:10.37,2013-03-18 15:59:00,
2013-03-18 12:04:00,40.6,35.9,29.77,SSE,158,0.0,0.0,83,0.00,,,0.04,WeatherDisplay:10.37,2013-03-18 16:04:00,
2013-03-18 12:09:00,40.6,35.9,29.77,SSE,158,0.0,0.0,83,0.00,,,0.04,WeatherDisplay:10.37,2013-03-18 16:09:00,
2013-03-18 12:14:00,40.6,35.9,29.77,East,90,0.0,0.0,83,0.00,,,0.04,WeatherDisplay:10.37,2013-03-18 16:14:00,
2013-03-18 12:19:00,40.6,35.9,29.77,ESE,112,0.0,0.0,83,0.00,,,0.04,WeatherDisplay:10.37,2013-03-18 16:19:00,
2013-03-18 12:24:00,40.8,36.1,29.77,ESE,112,0.0,0.0,83,0.00,,,0.04,WeatherDisplay:10.37,2013-03-18 16:24:00,
2013-03-18 12:29:00,40.8,36.1,29.77,SSE,158,0.0,0.0,83,0.00,,,0.04,WeatherDisplay:10.37,2013-03-18 16:29:00,
2013-03-18 12:34:00,40.8,36.1,29.77,SSE,158,0.0,0.0,83,0.00,,,0.04,WeatherDisplay:10.37,2013-03-18 16:34:00,
2013-03-18 12:39:00,40.8,36.1,29.77,SSE,158,0.0,3.8,83,0.00,,,0.04,WeatherDisplay:10.37,2013-03-18 16:39:00,
2013-03-18 12:44:00,40.8,36.1,29.77,SSW,202,0.0,0.0,83,0.00,,,0.04,WeatherDisplay:10.37,2013-03-18 16:44:00,
2013-03-18 12:49:00,40.8,36.1,29.76,SSW,202,0.0,0.0,83,0.00,,,0.04,WeatherDisplay:10.37,2013-03-18 16:49:00,
2013-03-18 12:54:00,40.8,36.1,29.77,SE,135,0.0,0.0,83,0.02,RA,,0.07,WeatherDisplay:10.37,2013-03-18 16:54:00,
2013-03-18 12:59:00,40.8,36.1,29.76,SE,135,0.0,0.0,83,0.02,RA,,0.07,WeatherDisplay:10.37,2013-03-18 16:59:00,
2013-03-18 13:04:00,40.8,36.1,29.75,SE,135,0.0,0.0,83,0.02,,,0.07,WeatherDisplay:10.37,2013-03-18 17:04:00,
2013-03-18 13:09:00,40.8,36.1,29.75,SE,135,0.0,0.0,83,0.02,,,0.07,WeatherDisplay:10.37,2013-03-18 17:09:00,
2013-03-18 13:14:00,40.8,36.1,29.75,SSE,158,0.0,0.0,83,0.02,,,0.07,WeatherDisplay:10.37,2013-03-18 17:14:00,
2013-03-18 13:19:00,41.0,36.2,29.74,SSE,158,0.0,0.0,83,0.02,,,0.07,WeatherDisplay:10.37,2013-03-18 17:19:00,
2013-03-18 13:24:00,41.2,36.4,29.73,SSE,158,0.0,0.0,83,0.02,,,0.07,WeatherDisplay:10.37,2013-03-18 17:24:00,
2013-03-18 13:29:00,41.2,36.4,29.73,SSE,158,0.0,0.0,83,0.02,,,0.07,WeatherDisplay:10.37,2013-03-18 17:29:00,
2013-03-18 13:34:00,41.4,36.9,29.73,SSE,158,0.0,0.0,84,0.02,,,0.07,WeatherDisplay:10.37,2013-03-18 17:34:00,
2013-03-18 13:39:00,41.5,37.1,29.74,SSE,158,0.0,0.0,84,0.02,,,0.07,WeatherDisplay:10.37,2013-03-18 17:39:00,
2013-03-18 13:44:00,41.7,37.2,29.74,SSE,158,0.0,0.0,84,0.02,,,0.07,WeatherDisplay:10.37,2013-03-18 17:44:00,
2013-03-18 13:49:00,41.7,37.2,29.72,South,180,0.3,0.0,84,0.02,,,0.07,WeatherDisplay:10.37,2013-03-18 17:49:00,
2013-03-18 13:54:00,41.9,37.4,29.73,SW,225,0.0,0.0,84,0.00,,,0.07,WeatherDisplay:10.37,2013-03-18 17:54:00,
2013-03-18 13:59:00,41.9,37.4,29.72,SW,225,0.0,0.0,84,0.00,,,0.07,WeatherDisplay:10.37,2013-03-18 17:59:00,
2013-03-18 14:04:00,42.1,37.6,29.72,SW,225,0.0,0.0,84,0.00,,,0.07,WeatherDisplay:10.37,2013-03-18 18:04:00,
2013-03-18 14:09:00,42.1,37.3,29.72,SW,225,0.0,0.0,83,0.00,,,0.07,WeatherDisplay:10.37,2013-03-18 18:09:00,
2013-03-18 14:14:00,42.1,37.3,29.71,South,180,0.0,0.0,83,0.00,,,0.07,WeatherDisplay:10.37,2013-03-18 18:14:00,
2013-03-18 14:19:00,42.4,37.6,29.71,South,180,0.0,0.0,83,0.00,,,0.07,WeatherDisplay:10.37,2013-03-18 18:19:00,
2013-03-18 14:24:00,42.4,37.6,29.71,South,180,0.0,0.0,83,0.00,,,0.07,WeatherDisplay:10.37,2013-03-18 18:24:00,
2013-03-18 14:29:00,42.6,37.8,29.71,South,180,0.0,0.0,83,0.00,,,0.07,WeatherDisplay:10.37,2013-03-18 18:29:00,
2013-03-18 14:34:00,42.6,37.8,29.71,South,180,0.0,0.0,83,0.00,,,0.07,WeatherDisplay:10.37,2013-03-18 18:34:00,
2013-03-18 14:39:00,42.6,37.8,29.70,South,180,0.0,0.0,83,0.02,RA,,0.09,WeatherDisplay:10.37,2013-03-18 18:39:00,
2013-03-18 14:44:00,42.6,37.8,29.71,South,180,0.0,0.0,83,0.02,RA,,0.09,WeatherDisplay:10.37,2013-03-18 18:44:00,
2013-03-18 14:49:00,43.0,38.2,29.70,South,180,0.0,0.0,83,0.02,,,0.11,WeatherDisplay:10.37,2013-03-18 18:49:00,
2013-03-18 14:54:00,43.0,38.2,29.68,South,180,0.0,0.0,83,0.04,RA,,0.13,WeatherDisplay:10.37,2013-03-18 18:54:00,
2013-03-18 14:59:00,43.0,38.2,29.68,South,180,0.0,0.0,83,0.07,RA,,0.13,WeatherDisplay:10.37,2013-03-18 18:59:00,
2013-03-18 15:04:00,43.2,38.3,29.69,South,180,0.0,0.0,83,0.07,RA,,0.13,WeatherDisplay:10.37,2013-03-18 19:04:00,
2013-03-18 15:09:00,43.2,38.3,29.68,South,180,0.0,0.0,83,0.07,,,0.13,WeatherDisplay:10.37,2013-03-18 19:09:00,
2013-03-18 15:14:00,43.2,38.3,29.67,South,180,0.0,0.0,83,0.07,,,0.13,WeatherDisplay:10.37,2013-03-18 19:14:00,
2013-03-18 15:19:00,43.3,38.8,29.67,South,180,0.0,0.0,84,0.07,,,0.13,WeatherDisplay:10.37,2013-03-18 19:19:00,
2013-03-18 15:24:00,43.3,38.8,29.67,South,180,0.0,0.0,84,0.07,,,0.13,WeatherDisplay:10.37,2013-03-18 19:24:00,
2013-03-18 15:29:00,43.3,38.8,29.67,South,180,0.0,0.0,84,0.07,,,0.13,WeatherDisplay:10.37,2013-03-18 19:29:00,
2013-03-18 15:34:00,43.5,39.0,29.67,South,180,0.0,0.0,84,0.07,,,0.13,WeatherDisplay:10.37,2013-03-18 19:34:00,
2013-03-18 15:39:00,43.5,39.0,29.66,South,180,0.0,0.0,84,0.04,,,0.13,WeatherDisplay:10.37,2013-03-18 19:39:00,
2013-03-18 15:44:00,43.5,39.0,29.66,South,180,0.0,0.0,84,0.04,,,0.13,WeatherDisplay:10.37,2013-03-18 19:44:00,
2013-03-18 15:49:00,43.7,38.9,29.66,South,180,0.0,0.0,83,0.04,,,0.13,WeatherDisplay:10.37,2013-03-18 19:49:00,
2013-03-18 15:54:00,43.7,39.2,29.65,South,180,0.0,0.0,84,0.02,,,0.13,WeatherDisplay:10.37,2013-03-18 19:54:00,
2013-03-18 15:59:00,43.9,39.4,29.66,South,180,0.0,0.0,84,0.00,,,0.13,WeatherDisplay:10.37,2013-03-18 19:59:00,
2013-03-18 16:04:00,43.7,38.9,29.66,South,180,0.0,0.0,83,0.00,,,0.13,WeatherDisplay:10.37,2013-03-18 20:04:00,
2013-03-18 16:09:00,43.7,38.9,29.66,South,180,0.0,0.0,83,0.00,,,0.13,WeatherDisplay:10.37,2013-03-18 20:09:00,
2013-03-18 16:14:00,43.7,38.9,29.66,South,180,0.0,0.0,83,0.00,,,0.13,WeatherDisplay:10.37,2013-03-18 20:14:00,
2013-03-18 16:19:00,43.7,38.9,29.66,South,180,0.0,0.0,83,0.00,,,0.13,WeatherDisplay:10.37,2013-03-18 20:19:00,
2013-03-18 16:24:00,43.9,39.1,29.66,South,180,0.0,0.0,83,0.00,,,0.13,WeatherDisplay:10.37,2013-03-18 20:24:00,
2013-03-18 16:29:00,43.9,39.4,29.66,South,180,0.0,0.0,84,0.00,,,0.13,WeatherDisplay:10.37,2013-03-18 20:29:00,
2013-03-18 16:34:00,43.9,39.4,29.65,South,180,0.0,0.0,84,0.00,,,0.13,WeatherDisplay:10.37,2013-03-18 20:34:00,
2013-03-18 16:39:00,44.1,39.5,29.64,SSE,158,0.0,0.0,84,0.02,RA,,0.16,WeatherDisplay:10.37,2013-03-18 20:39:00,
2013-03-18 16:44:00,44.1,39.5,29.64,SSE,158,0.0,0.0,84,0.02,RA,,0.16,WeatherDisplay:10.37,2013-03-18 20:44:00,
2013-03-18 16:49:00,43.9,39.4,29.65,SSE,158,0.0,0.0,84,0.02,,,0.16,WeatherDisplay:10.37,2013-03-18 20:49:00,
2013-03-18 16:54:00,43.9,39.4,29.65,SSE,158,0.0,0.0,84,0.02,,,0.16,WeatherDisplay:10.37,2013-03-18 20:54:00,
2013-03-18 16:59:00,43.7,39.2,29.65,SSE,158,0.0,0.0,84,0.02,,,0.16,WeatherDisplay:10.37,2013-03-18 20:59:00,
2013-03-18 17:04:00,43.7,39.2,29.64,South,180,0.0,0.0,84,0.04,RA,,0.18,WeatherDisplay:10.37,2013-03-18 21:04:00,
2013-03-18 17:09:00,43.7,39.2,29.64,South,180,0.0,0.0,84,0.07,RA,,0.20,WeatherDisplay:10.37,2013-03-18 21:09:00,
2013-03-18 17:14:00,43.7,39.5,29.65,South,180,0.0,0.0,85,0.07,RA,,0.20,WeatherDisplay:10.37,2013-03-18 21:14:00,
2013-03-18 17:19:00,43.7,39.5,29.65,South,180,0.0,0.0,85,0.07,,,0.20,WeatherDisplay:10.37,2013-03-18 21:19:00,
2013-03-18 17:24:00,43.5,39.0,29.65,South,180,0.0,0.0,84,0.09,RA,,0.24,WeatherDisplay:10.37,2013-03-18 21:24:00,
2013-03-18 17:29:00,43.5,39.0,29.66,South,180,0.0,0.0,84,0.11,RA,,0.24,WeatherDisplay:10.37,2013-03-18 21:29:00,
2013-03-18 17:34:00,43.3,38.8,29.67,South,180,0.0,0.0,84,0.11,RA,,0.24,WeatherDisplay:10.37,2013-03-18 21:34:00,
2013-03-18 17:39:00,43.3,38.8,29.67,SSE,158,0.0,0.0,84,0.09,,,0.24,WeatherDisplay:10.37,2013-03-18 21:39:00,
2013-03-18 17:44:00,43.2,38.7,29.67,SSE,158,0.0,0.0,84,0.00,,,0.25,WeatherDisplay:10.37,2013-03-18 21:44:00,
2013-03-18 17:49:00,43.2,39.0,29.67,SSE,158,0.0,0.0,85,0.02,RA,,0.27,WeatherDisplay:10.37,2013-03-18 21:49:00,
2013-03-18 17:54:00,43.2,38.7,29.68,SSE,162,0.0,0.0,84,0.00,RA,,0.27,WeatherDisplay:10.37,2013-03-18 21:54:00,
2013-03-18 17:59:00,43.0,38.8,29.67,ESE,106,0.0,0.0,85,0.00,,,0.27,WeatherDisplay:10.37,2013-03-18 21:59:00,
2013-03-18 18:04:00,43.0,39.1,29.68,ENE,71,0.0,0.0,86,0.00,,,0.27,WeatherDisplay:10.37,2013-03-18 22:04:00,
2013-03-18 18:09:00,43.2,39.3,29.67,South,180,0.0,0.0,86,0.07,,,0.27,WeatherDisplay:10.37,2013-03-18 22:09:00,
2013-03-18 18:14:00,43.1,39.2,29.67,South,190,0.0,0.0,86,0.00,,,0.27,WeatherDisplay:10.37,2013-03-18 22:14:00,
2013-03-18 18:19:00,43.0,39.1,29.66,South,180,0.0,0.0,86,0.09,RA,,0.29,WeatherDisplay:10.37,2013-03-18 22:19:00,
2013-03-18 18:24:00,43.0,39.1,29.68,South,180,0.0,0.0,86,0.07,RA,,0.31,WeatherDisplay:10.37,2013-03-18 22:24:00,
2013-03-18 18:29:00,42.6,38.7,29.67,SE,135,0.0,0.0,86,0.07,RA,,0.31,WeatherDisplay:10.37,2013-03-18 22:29:00,
2013-03-18 18:34:00,42.6,38.7,29.67,NE,45,0.0,0.0,86,0.07,,,0.31,WeatherDisplay:10.37,2013-03-18 22:34:00,
2013-03-18 18:39:00,42.4,38.5,29.67,NE,40,0.0,0.0,86,0.00,,,0.31,WeatherDisplay:10.37,2013-03-18 22:39:00,
2013-03-18 18:44:00,42.4,38.5,29.66,NNE,22,0.0,0.0,86,0.09,RA,,0.33,WeatherDisplay:10.37,2013-03-18 22:44:00,
2013-03-18 18:49:00,42.6,38.7,29.67,SSE,158,0.0,0.0,86,0.09,RA,,0.36,WeatherDisplay:10.37,2013-03-18 22:49:00,
2013-03-18 18:54:00,42.6,39.0,29.68,SSE,158,0.0,0.0,87,0.11,RA,,0.38,WeatherDisplay:10.37,2013-03-18 22:54:00,
2013-03-18 18:59:00,42.6,39.0,29.69,SSE,158,0.0,0.0,87,0.16,RA,,0.43,WeatherDisplay:10.37,2013-03-18 22:59:00,
2013-03-18 19:04:00,42.6,39.0,29.68,ESE,112,0.0,0.0,87,0.18,RA,,0.45,WeatherDisplay:10.37,2013-03-18 23:04:00,
2013-03-18 19:09:00,42.6,39.0,29.67,ESE,112,0.0,0.0,87,0.18,RA,,0.45,WeatherDisplay:10.37,2013-03-18 23:09:00,
2013-03-18 19:14:00,42.6,39.0,29.68,ESE,112,0.0,0.0,87,0.20,RA,,0.47,WeatherDisplay:10.37,2013-03-18 23:14:00,
2013-03-18 19:20:00,43.0,39.4,29.67,ESE,112,0.0,0.0,87,0.20,RA,,0.49,WeatherDisplay:10.37,2013-03-18 23:20:00,
2013-03-18 19:25:00,43.0,39.4,29.68,ESE,112,0.0,0.0,87,0.18,RA,,0.49,WeatherDisplay:10.37,2013-03-18 23:25:00,
2013-03-18 19:30:00,43.2,39.6,29.67,ESE,112,0.0,0.0,87,0.18,,,0.49,WeatherDisplay:10.37,2013-03-18 23:30:00,
2013-03-18 19:35:00,43.0,39.1,29.67,ESE,112,0.0,0.0,86,0.20,RA,,0.52,WeatherDisplay:10.37,2013-03-18 23:35:00,
2013-03-18 19:40:00,43.0,39.1,29.67,ESE,112,0.0,0.0,86,0.20,RA,,0.52,WeatherDisplay:10.37,2013-03-18 23:40:00,
2013-03-18 19:45:00,43.0,39.1,29.67,ESE,112,0.0,0.0,86,0.18,,,0.52,WeatherDisplay:10.37,2013-03-18 23:45:00,
2013-03-18 19:50:00,43.0,39.1,29.67,ESE,112,0.0,0.0,86,0.16,,,0.52,WeatherDisplay:10.37,2013-03-18 23:50:00,
2013-03-18 19:55:00,43.0,39.1,29.67,ESE,112,0.0,0.0,86,0.14,,,0.52,WeatherDisplay:10.37,2013-03-18 23:55:00,
2013-03-18 20:00:00,42.8,38.9,29.67,SE,135,0.0,0.0,86,0.09,,,0.52,WeatherDisplay:10.37,2013-03-19 00:00:00,
2013-03-18 20:05:00,42.8,38.9,29.67,SE,135,0.0,0.0,86,0.07,,,0.52,WeatherDisplay:10.37,2013-03-19 00:05:00,
2013-03-18 20:10:00,42.6,38.7,29.68,SE,135,0.0,0.0,86,0.07,,,0.52,WeatherDisplay:10.37,2013-03-19 00:10:00,
2013-03-18 20:15:00,42.6,38.7,29.67,South,180,0.0,0.0,86,0.04,,,0.52,WeatherDisplay:10.37,2013-03-19 00:15:00,
2013-03-18 20:20:00,42.6,38.7,29.66,West,270,0.0,0.0,86,0.04,RA,,0.54,WeatherDisplay:10.37,2013-03-19 00:20:00,
2013-03-18 20:25:00,42.6,39.0,29.65,West,270,0.0,0.0,87,0.04,RA,,0.54,WeatherDisplay:10.37,2013-03-19 00:25:00,
2013-03-18 20:30:00,42.4,38.8,29.64,West,270,0.0,0.0,87,0.04,,,0.54,WeatherDisplay:10.37,2013-03-19 00:30:00,
2013-03-18 20:35:00,42.4,38.8,29.63,West,270,0.0,0.0,87,0.02,,,0.54,WeatherDisplay:10.37,2013-03-19 00:35:00,
2013-03-18 20:40:00,42.6,39.0,29.62,West,270,0.0,0.0,87,0.02,,,0.54,WeatherDisplay:10.37,2013-03-19 00:40:00,
2013-03-18 20:45:00,42.6,39.0,29.61,West,270,0.0,0.0,87,0.02,,,0.54,WeatherDisplay:10.37,2013-03-19 00:45:00,
2013-03-18 20:50:00,42.6,39.0,29.60,West,270,0.0,0.0,87,0.02,,,0.54,WeatherDisplay:10.37,2013-03-19 00:50:00,
2013-03-18 20:55:00,42.6,39.0,29.59,West,270,0.0,0.0,87,0.02,,,0.54,WeatherDisplay:10.37,2013-03-19 00:55:00,
2013-03-18 21:00:00,42.6,39.0,29.59,NNW,338,0.0,0.0,87,0.02,,,0.54,WeatherDisplay:10.37,2013-03-19 01:00:00,
2013-03-18 21:05:00,42.6,39.3,29.60,NNW,338,0.0,0.0,88,0.02,,,0.54,WeatherDisplay:10.37,2013-03-19 01:05:00,
2013-03-18 21:10:00,42.6,39.3,29.62,NW,315,0.0,0.0,88,0.02,,,0.54,WeatherDisplay:10.37,2013-03-19 01:10:00,
2013-03-18 21:15:00,42.6,39.6,29.62,WSW,248,0.0,0.0,89,0.02,,,0.54,WeatherDisplay:10.37,2013-03-19 01:15:00,
2013-03-18 21:20:00,43.0,40.0,29.62,NW,315,0.0,0.0,89,0.00,,,0.54,WeatherDisplay:10.37,2013-03-19 01:20:00,
2013-03-18 21:25:00,43.2,40.1,29.63,NNW,338,0.0,0.0,89,0.00,,,0.54,WeatherDisplay:10.37,2013-03-19 01:25:00,
2013-03-18 21:30:00,43.3,40.3,29.62,NNW,338,0.0,0.0,89,0.00,,,0.54,WeatherDisplay:10.37,2013-03-19 01:30:00,
2013-03-18 21:35:00,43.5,40.5,29.62,NNW,338,0.0,0.0,89,0.00,,,0.54,WeatherDisplay:10.37,2013-03-19 01:35:00,
2013-03-18 21:40:00,43.7,40.7,29.62,NNW,338,0.0,0.0,89,0.00,,,0.54,WeatherDisplay:10.37,2013-03-19 01:40:00,
2013-03-18 21:45:00,43.7,40.7,29.62,NNW,338,0.0,0.0,89,0.00,,,0.54,WeatherDisplay:10.37,2013-03-19 01:45:00,
2013-03-18 21:50:00,43.9,40.8,29.62,NNW,338,0.0,0.0,89,0.00,,,0.54,WeatherDisplay:10.37,2013-03-19 01:50:00,
2013-03-18 21:55:00,43.9,40.6,29.61,NNW,338,0.0,0.0,88,0.00,,,0.54,WeatherDisplay:10.37,2013-03-19 01:55:00,
2013-03-18 22:00:00,43.9,40.6,29.61,NNW,338,0.0,0.0,88,0.00,,,0.54,WeatherDisplay:10.37,2013-03-19 02:00:00,
2013-03-18 22:05:00,43.7,40.4,29.61,NNW,338,0.0,0.0,88,0.00,,,0.54,WeatherDisplay:10.37,2013-03-19 02:05:00,
2013-03-18 22:10:00,43.5,40.2,29.61,NNW,338,0.0,0.0,88,0.00,,,0.54,WeatherDisplay:10.37,2013-03-19 02:10:00,
2013-03-18 22:15:00,43.5,39.9,29.60,NNW,338,0.0,0.0,87,0.00,,,0.54,WeatherDisplay:10.37,2013-03-19 02:15:00,
2013-03-18 22:20:00,43.3,39.7,29.61,NNW,338,0.0,0.0,87,0.00,,,0.54,WeatherDisplay:10.37,2013-03-19 02:20:00,
2013-03-18 22:25:00,43.0,39.4,29.61,NNW,338,0.0,0.0,87,0.00,,,0.54,WeatherDisplay:10.37,2013-03-19 02:25:00,
2013-03-18 22:30:00,43.0,39.4,29.61,NNW,338,0.0,0.0,87,0.00,,,0.54,WeatherDisplay:10.37,2013-03-19 02:30:00,
2013-03-18 22:35:00,43.0,39.4,29.61,NNW,338,0.0,0.0,87,0.00,,,0.54,WeatherDisplay:10.37,2013-03-19 02:35:00,
2013-03-18 22:40:00,43.0,39.4,29.61,NNW,338,0.0,0.0,87,0.00,,,0.54,WeatherDisplay:10.37,2013-03-19 02:40:00,
2013-03-18 22:45:00,43.0,39.4,29.61,NNW,338,0.0,0.0,87,0.00,,,0.54,WeatherDisplay:10.37,2013-03-19 02:45:00,
2013-03-18 22:50:00,43.0,39.4,29.61,NNW,338,0.0,0.0,87,0.00,,,0.54,WeatherDisplay:10.37,2013-03-19 02:50:00,
2013-03-18 22:55:00,43.0,39.4,29.61,NW,315,0.0,0.0,87,0.00,,,0.54,WeatherDisplay:10.37,2013-03-19 02:55:00,
2013-03-18 23:00:00,42.8,39.2,29.61,NW,315,0.0,0.0,87,0.00,,,0.54,WeatherDisplay:10.37,2013-03-19 03:00:00,
2013-03-18 23:05:00,42.6,39.0,29.61,NW,315,0.0,0.0,87,0.00,,,0.54,WeatherDisplay:10.37,2013-03-19 03:05:00,
2013-03-18 23:10:00,42.6,39.0,29.61,NW,315,0.0,0.0,87,0.00,,,0.54,WeatherDisplay:10.37,2013-03-19 03:10:00,
2013-03-18 23:15:00,42.8,39.5,29.62,West,270,0.0,0.0,88,0.00,,,0.54,WeatherDisplay:10.37,2013-03-19 03:15:00,
2013-03-18 23:20:00,43.0,39.7,29.61,West,270,0.0,0.0,88,0.00,,,0.54,WeatherDisplay:10.37,2013-03-19 03:20:00,
2013-03-18 23:25:00,43.0,39.7,29.61,WSW,248,0.0,0.0,88,0.00,,,0.54,WeatherDisplay:10.37,2013-03-19 03:25:00,
2013-03-18 23:30:00,43.0,39.7,29.61,South,180,0.0,0.0,88,0.00,,,0.54,WeatherDisplay:10.37,2013-03-19 03:30:00,
2013-03-18 23:35:00,43.0,39.7,29.62,SSW,202,0.0,0.0,88,0.00,,,0.54,WeatherDisplay:10.37,2013-03-19 03:35:00,
2013-03-18 23:40:00,43.0,39.7,29.62,SSW,202,0.0,0.0,88,0.00,,,0.54,WeatherDisplay:10.37,2013-03-19 03:40:00,
2013-03-18 23:45:00,43.0,39.7,29.61,WSW,248,0.0,0.0,88,0.00,,,0.54,WeatherDisplay:10.37,2013-03-19 03:45:00,
2013-03-18 23:50:00,43.0,39.7,29.62,South,180,0.0,0.0,88,0.00,,,0.54,WeatherDisplay:10.37,2013-03-19 03:50:00,
2013-03-18 23:55:00,43.0,39.7,29.62,SW,225,0.0,0.0,88,0.00,,,0.54,WeatherDisplay:10.37,2013-03-19 03:55:00,